Regional Weather Roundup
Issued by NWS

Home | Current Version | Previous Version | Text Only | Print | Product List | Glossary Off
Versions: 1 2 3 4 5 6 7 8 9 10 11 12 13 14 15 16 17 18 19 20 21 22 23 24 25 26 27 28 29 30 31 32 33 34 35 36 37 38 39 40 41 42 43 44 45 46 47 48 49 50

000
ASUS43 KIND 240309
RWRIN

WEATHER ROUNDUP FOR INDIANA
NATIONAL WEATHER SERVICE INDIANAPOLIS IN
1100 PM EDT TUE MAY 23 2017

NOTE: "FAIR" INDICATES FEW OR NO CLOUDS BELOW 12,000 FEET WITH NO
SIGNIFICANT WEATHER AND/OR OBSTRUCTIONS TO VISIBILITY.

* - STATION DOES NOT REPORT WEATHER SUCH AS PRECIPITATION OR FOG.

+ - STATION NOT QUALITY CONTROLLED BY THE NATIONAL WEATHER SERVICE.
    USE DATA WITH CAUTION...ESPECIALLY DEWPOINT AND RELATIVE
    HUMIDITY OBSERVATIONS.

INZ001>003-010>013-019-020-240400-
NORTHWEST INDIANA

CITY           SKY/WX    TMP DP  RH WIND       PRES   REMARKS
GARY /AIRPORT/ CLOUDY    57  54  88 N5        29.70F
KNOX *+        CLOUDY    59  50  72 N6        29.67F
LA PORTE +     CLOUDY    56  54  92 N7        29.70S
MICHIGAN CITY+ CLOUDY    54  54 100 N3        29.70F
MONTICELLO +   CLOUDY    63  56  80 N7        29.65S
RENSSELAER +   CLOUDY    59  52  77 NW6       29.68S
VALPARAISO     CLOUDY    58  55  90 N7        29.69F

$$

LMZ046-743>745-240400-
SOUTHERN LAKE MICHIGAN

STATION/POSITION TIME  TEMP    WIND        PRES    WAVE
                       AIR SEA DIR/SP/G            HT
                 (UTC) (F)     (DEG/KT/KT) (MB)    (FT)
BURNS HARBOR     0230   54      10/  6/ 12 1006.1S
MICHIGAN CITY    0240   54      10/ 15/ 16   N/A
5NW MICH CITY    0300   54 53   10/ 12/ 14   N/A     1

$$

INZ004-005-014>016-021>024-240400-
NORTH CENTRAL INDIANA

CITY           SKY/WX    TMP DP  RH WIND       PRES   REMARKS
GOSHEN         CLOUDY    60  54  80 NE9       29.68F
LOGANSPORT +   CLOUDY    63  54  72 N8        29.66S
PERU/GRISSOM   CLOUDY    63  54  71 NE9       29.63F
ROCHESTER +    CLOUDY    63  57  82 NE3       29.67S
SOUTH BEND     LGT RAIN  58  54  86 NE3       29.69S
WARSAW +       CLOUDY    61  54  77 NE6       29.67F

$$

INZ006>009-017-018-025>027-240400-
NORTHEAST INDIANA

CITY           SKY/WX    TMP DP  RH WIND       PRES   REMARKS
ANGOLA *+      CLEAR     59  55  88 NE7       29.69S
AUBURN +       PTCLDY    61  50  67 NE8       29.68S
FORT WAYNE     CLOUDY    64  49  57 NE12      29.66S
HUNTINGTON +   CLOUDY    62  53  73 N3        29.65F
KENDALLVILLE + CLOUDY    60  56  87 NE6       29.69S

$$

INZ028-029-035-036-043>045-051>053-240400-
WEST CENTRAL INDIANA

CITY           SKY/WX    TMP DP  RH WIND       PRES   REMARKS
CRAWFORDSVL +  CLOUDY    60  56  86 W3        29.65S
GREENCASTLE +  CLOUDY    64  46  52 CALM      29.66R
LAFAYETTE      CLOUDY    63  54  72 N5        29.64S
TERRE HAUTE    CLOUDY    64  53  67 CALM      29.65S

$$

INZ030>032-037>040-046>048-054>057-064-065-240400-
CENTRAL INDIANA

CITY           SKY/WX    TMP DP  RH WIND       PRES   REMARKS
CP ATTERBURY + CLOUDY    61  55  82 CALM      29.65S
FISHERS *+     CLOUDY    64  52  63 SW3       29.64S
FRANKFORT +    CLOUDY    67  55  67 N6        29.66S
GREENWOOD *+   MOCLDY    65  52  61 CALM      29.65S
INDIANAPOLIS   CLOUDY    65  49  56 SW3       29.63F
-EAGLE CREEK   CLOUDY    68  44  42 CALM      29.63S
KOKOMO +       CLOUDY    64  52  64 NE9       29.65F
MARION +       CLOUDY    64  48  55 E3        29.64F HAZE
MT COMFORT *+  CLOUDY    64  54  68 CALM      29.64S
SHELBYVILLE    MOCLDY    66  53  63 CALM      29.63F
ZIONSVILLE +   CLOUDY    63  56  78 CALM      29.65S

$$

INZ033-034-041-042-049-050-058-059-240400-
EAST CENTRAL INDIANA

CITY           SKY/WX    TMP DP  RH WIND       PRES   REMARKS
MUNCIE         CLOUDY    65  53  65 E5        29.64F
RICHMOND +     CLOUDY    63  54  72 E3        29.66S

$$

INZ060-061-067>069-081>083-085>088-240400-
SOUTHWEST INDIANA

CITY           SKY/WX    TMP DP  RH WIND       PRES   REMARKS
EVANSVILLE     CLOUDY    69  52  54 W3        29.66R
HUNTINGBURG *+ CLOUDY    65  57  75 CALM      29.65R
WASHINGTON +   MOCLDY    65  52  63 CALM      29.64S

$$

INZ062-063-066-070>080-084-089>092-240400-
SOUTH CENTRAL AND SOUTHEAST INDIANA

CITY           SKY/WX    TMP DP  RH WIND       PRES   REMARKS
BEDFORD +      CLOUDY    63  54  72 CALM      29.64S
BLOOMINGTON    CLOUDY    64  55  72 CALM      29.65R
MADISON *+     CLOUDY    63  59  88 CALM      29.67R
NORTH VERNON + PTCLDY    63  55  77 CALM      29.65S
SEYMOUR +      CLOUDY    66  57  72 CALM      29.64

$$




USA.gov is the U.S. government's official web portal to all federal, state and local government web resources and services.